sat.trackr.live / text

‹ back to catalog

STARLINK-32322

NORAD 61720 · 2024-196P

PAYLOAD ACTIVE UNKNOWN

§ Identity

Operator
Country
US
Launch date
2024-10-30
Launch site
AFETR
Launch vehicle
Mass (kg)
RCS (m²)

Purposes: comms

External: N2YO · Heavens-Above · Gunter

§ Orbital elements

Epoch: 2026-09-21T17:40:10.809408Z

Period
93.85 min
Inclination
53.1605°
Eccentricity
0.0000686
Mean motion
15.34400752 rev/d
Perigee alt
462.2 km
Apogee alt
463.2 km
Semi-major
6,840.8 km
B*
1.7889e-4
RAAN
267.7877°
Arg perigee
106.1818°
Mean anomaly
253.9260°
Rev number
10,721

§ Raw data

STARLINK-323221 61720U 24196P   26264.73623622  .00005673  00000+0  17889-3 0  99952 61720  53.1605 267.7877 0000686 106.1818 253.9260 15.34400752107216

JSON: /api/v1/satellites/61720 · /tle

For live sub-satellite position, see the globe view (requires WebGL).

§ Visibility from observer

Set your observer location to see the next 7 days of passes ≥ 10°. The values pass through the URL so the page stays shareable.

No JS? Fill the form by hand. The geolocation button needs JavaScript.